❰ Current Conditions

NWS Regional Weather Roundup - New England Area
REGIONAL WEATHER ROUNDUP
NATIONAL WEATHER SERVICE BOSTON/NORTON MA
900 PM EDT WED SEP 22 2021

NOTE:  "FAIR" INDICATES FEW OR NO CLOUDS BELOW 12,000 FEET WITH NO 
SIGNIFICANT WEATHER AND/OR OBSTRUCTIONS TO VISIBILITY.

MAZALL-230200-
EASTERN MASSACHUSETTS
  
CITY           SKY/WX    TMP DP  RH WIND       PRES   REMARKS
BOSTON         MOCLDY    72  67  84 S9        30.11S                  
BEVERLY        MOCLDY    70  67  90 SE7       30.11R                  
LAWRENCE       MOCLDY    71  68  90 SE3       30.12S                  
BEDFORD        PTCLDY    71  68  90 S8        30.09S                  
BLUE HILL      NOT AVBL                                               
NORWOOD        PTCLDY    69  66  90 SE5       30.10S                  
MARSHFIELD     MOCLDY    70  68  94 SE6       30.12S                  
PLYMOUTH       MOCLDY    71  66  84 VRB5      30.13R                  
TAUNTON        MOCLDY    71  67  87 SE6       30.11S                  
NEW BEDFORD    MOCLDY    72  68  87 S8        30.11S                  
$$

MAZALL-230200-
CAPE COD AND THE ISLANDS
  
CITY           SKY/WX    TMP DP  RH WIND       PRES   REMARKS
FALMOUTH       CLEAR     70  66  88 S10       30.13S                  
HYANNIS        PTCLDY    71  68  90 SE7       30.12S                  
CHATHAM        CLEAR     67  64  90 VRB6      30.16R                  
PROVINCETOWN   PTCLDY    69  66  90 S8        30.14S                  
NANTUCKET        N/A    N/A N/A N/A MISG      30.14S                  
MARTHAS VNYRD  MOCLDY    70  67  90 SE9       30.13R                  
$$
 
MAZALL-230200-
CENTRAL AND WESTERN MASSACHUSETTS
  
CITY           SKY/WX    TMP DP  RH WIND       PRES   REMARKS
WORCESTER      CLOUDY    68  68 100 SE10      30.12S                  
FITCHBURG      CLOUDY    70  68  93 SE5       30.10S                  
ORANGE         RAIN      70  69  97 S7        30.09R FOG              
SPRINGFIELD    LGT RAIN  71  71 100 S5        30.05S                  
WESTFIELD      CLOUDY    71  71 100 S8        30.05S                  
NORTH ADAMS    NOT AVBL                                               
PITTSFIELD     MOCLDY    69  64  84 SE9       30.04S                  
$$
 
RIZALL-230200-
RHODE ISLAND
  
CITY           SKY/WX    TMP DP  RH WIND       PRES   REMARKS
PROVIDENCE     MOCLDY    71  69  93 S8        30.11S                  
NEWPORT        PTCLDY    70  68  93 S13       30.11S                  
BLOCK ISLAND   MOCLDY    70  68  93 SE9       30.11S                  
SMITHFIELD     CLOUDY    69  68  96 VRB5      30.12S                  
WESTERLY       PTCLDY    69  69 100 SE8       30.10R                  
$$
 
CTZALL-230200-
CONNECTICUT
  
CITY           SKY/WX    TMP DP  RH WIND       PRES   REMARKS
BRADLEY INTL   LGT RAIN  71  70  96 S12       30.05S                  
HARTFORD       CLOUDY    73  69  87 VRB6      30.05R                  
BRIDGEPORT     CLOUDY    75  70  84 SE9       30.04R                  
DANBURY        CLOUDY    74  70  87 SE6       30.05R                  
GROTON         MOCLDY    71  70  96 SE15      30.08R                  
NEW HAVEN      CLOUDY    76  73  91 SE10      30.05R                  
CHESTER        CLOUDY    72  72 100 VRB9      30.08S                  
MERIDEN        CLOUDY    74  69  85 S9        30.05R                  
WILLIMANTIC    CLOUDY    72  69  90 S9        30.08S                  
OXFORD         CLOUDY    71  70  96 S15       30.07S                  
$$

MEZ002-015-021-024-NHZ003-005-008-011-012-014-VTZ005-008-230200-
NORTHERN NEW ENGLAND
  
CITY           SKY/WX    TMP DP  RH WIND       PRES   REMARKS
PORTLAND ME    CLOUDY    67  65  93 S8        30.13S                  
BANGOR ME      MOCLDY    65  62  90 SE8       30.17S                  
CONCORD NH     LGT RAIN  69  68  96 SE8       30.09F FOG              
MANCHESTER NH  CLOUDY    73  67  81 S8G18     30.08S                  
NASHUA NH      CLOUDY    70  70 100 VRB5      30.10S                  
PORTSMOUTH NH  MOCLDY    67  65  91 SE7       30.12S                  
JAFFREY NH     CLOUDY    70  69  97 S8        30.10S                  
KEENE NH       CLOUDY    72  68  87 S8        30.07R                  
BURLINGTON VT  CLOUDY    76  65  68 S9        29.97R                  
MT. WASHINGTON DRZL/FOG  52  52 100 S38G47      N/A  VSB 0            
$$

NYZ052-076-230200-
EASTERN NEW YORK
  
CITY           SKY/WX    TMP DP  RH WIND       PRES   REMARKS
ALBANY         MOCLDY    70  64  81 SE7       29.98S                  
NEW YORK CITY  MOCLDY    77  67  71 S18G26    30.00R                  
$$
 
ANZALL-230200-
MARINE OBSERVATIONS
  
STATION/POSITION TIME  TEMP    WIND        PRES    VSBY  WAVE
                       AIR SEA DIR/SP/G                  HT/PER
                 (UTC) (F)     (DEG/KT/KT) (MB)    (MI)  (FT/S)
BOSTON BUOY      0040      66  150/ 10/ 12 1020.3R
BUZZARDS BAY     0000          150/ 16/ 18 1020.4R
NANTUCKET SOUND  0040   73 72  150/ 14/ 16 1020.4R
MASS BAY-STELLWA 0004   67     160/ 12/ 16 1019.4R  1 7/8  3/ 6
ISLE OF SHOALS   0000   69     150/ 22/ 23 1018.9R
S OF BLOCK IS    0026      70                N/A           4/ 6
$$

......................KEY.........................
  SKY/WX - SKY CONDITION/PRESENT WEATHER
  TMP    - TEMPERATURE IN FAHRENHEIT
  DWPT   - DEWPOINT IN FAHRENHEIT
  RH     - RELATIVE HUMIDITY IN PERCENT
  WIND   - DIRECTION AND SPEED IN MPH
  PRES   - MEAN SEA LEVEL PRESSURE IN INCHES OF HG
  WCI    - WIND CHILL INDEX
  VSB    - VISIBILITY IN MILES
  HX     - HEAT INDEX
  TC     - TEMPERATURE IN CELSIUS
  VRB    - VARIABLE WIND DIRECTION
  N/A    - NOT AVAILABLE